Location: Murdochville
(48.9591°N, 65.4950°W)
Time: 01:33:21
(UTC-04:00)

Envisat - Visible Passes

Search period start: 19 April 2026 00:00
Search period end: 29 April 2026 00:00
Orbit: 761 x 762 km, 98.4° (Epoch: 18 April)

Date Brightness Start Highest point End Pass type
(mag) Time Alt. Az. Time Alt. Az. Time Alt. Az.
19 Apr 5.5 01:31:45 10° ENE 01:33:40 12° E 01:35:35 10° ESE visible
19 Apr 3.0 03:08:18 10° NNE 03:13:24 82° ESE 03:16:08 28° S visible
20 Apr 4.0 02:30:43 10° NNE 02:35:28 39° E 02:37:59 24° SSE visible
20 Apr 3.9 04:09:49 10° N 04:14:19 33° WNW 04:18:07 13° WSW visible
21 Apr 5.1 01:53:42 10° NE 01:57:19 19° E 01:59:48 14° SE visible
21 Apr 3.0 03:31:40 10° N 03:36:42 65° WNW 03:39:57 22° SSW visible
22 Apr 3.3 02:53:51 10° NNE 02:58:53 62° ESE 03:01:46 25° S visible
22 Apr 4.4 04:33:33 10° N 04:37:24 22° WNW 04:41:14 10° WSW visible
23 Apr 4.5 02:16:25 10° NNE 02:20:52 30° E 02:23:37 19° SE visible
23 Apr 3.6 03:55:09 10° N 03:59:55 42° WNW 04:03:44 15° SW visible
24 Apr 5.4 01:39:51 10° NE 01:42:37 15° E 01:45:22 10° ESE visible
24 Apr 2.9 03:17:07 10° NNE 03:22:13 85° WNW 03:25:34 22° SSW visible
25 Apr 3.8 02:39:26 10° NNE 02:44:20 47° E 02:47:24 21° SSE visible
25 Apr 4.1 04:18:47 10° N 04:23:03 28° WNW 04:27:18 10° WSW visible
26 Apr 4.9 02:02:14 10° NE 02:06:14 23° E 02:09:14 14° SE visible
26 Apr 3.2 03:40:32 10° N 03:45:29 55° WNW 03:49:22 16° SW visible
27 Apr 5.6 01:26:50 10° ENE 01:27:54 11° E 01:28:58 10° E visible
27 Apr 3.1 03:02:38 10° NNE 03:07:43 74° ESE 03:11:11 21° S visible
28 Apr 4.2 02:25:05 10° NNE 02:29:45 35° E 02:33:00 17° SSE visible
28 Apr 3.8 04:04:04 10° N 04:08:40 36° WNW 04:13:09 10° SW visible
